sat.trackr.live / text

‹ back to catalog

ONEWEB-0082

NORAD 45452 · 2020-020AE

PAYLOAD ACTIVE UNKNOWN

§ Identity

Operator
Country
UK
Launch date
2020-03-21
Launch site
TYMSC
Launch vehicle
Mass (kg)
RCS (m²)

Purposes: comms

External: N2YO · Heavens-Above · Gunter

§ Orbital elements

Epoch: 2026-09-20T00:25:00.146784Z

Period
109.80 min
Inclination
87.8974°
Eccentricity
0.0002401
Mean motion
13.11416683 rev/d
Perigee alt
1,215.9 km
Apogee alt
1,219.5 km
Semi-major
7,595.8 km
B*
2.2090e-4
RAAN
2.2127°
Arg perigee
100.7276°
Mean anomaly
259.4122°
Rev number
31,510

§ Raw data

ONEWEB-00821 45452U 20020AE  26263.01736281  .00000091  00000+0  22090-3 0  99962 45452  87.8974   2.2127 0002401 100.7276 259.4122 13.11416683315108

JSON: /api/v1/satellites/45452 · /tle

For live sub-satellite position, see the globe view (requires WebGL).

§ Visibility from observer

Set your observer location to see the next 7 days of passes ≥ 10°. The values pass through the URL so the page stays shareable.

No JS? Fill the form by hand. The geolocation button needs JavaScript.